Location: *
(46.1866°S, 178.5290°W)
Time: 03:16:09
(UTC+00:00)

Radarsat Rocket - Pass Details

Date: 19 May 2021
Orbit: 934 x 1491 km, 100.6° (Epoch: 12 June)

Event Time Altitude Azimuth Distance (km) Brightness Sun altitude
Rises 06:53:58 0° 165° (SSE) 3,784 6.9 -25.0°
Reaches altitude 10° 06:56:32 10° 167° (SSE) 2,777 6.2 -25.4°
Maximum altitude 07:02:36 69° 249° (WSW) 1,017 4.2 -26.5°
Drops below altitude 10° 07:08:23 10° 331° (NNW) 2,652 6.6 -27.5°
Sets 07:10:47 0° 333° (NNW) 3,602 7.3 -27.9°
